Location: American Canyon
(38.1966°N, 122.1514°W)
Time: 16:44:41
(UTC+00:00)

Cosmos 2082 Rocket - Pass Details

Date: 29 October 2020
Orbit: 833 x 854 km, 71.0° (Epoch: 23 November)

Event Time Altitude Azimuth Distance (km) Brightness Sun altitude
Exits shadow 13:51:49 - 265° (W) 2,516 4.1 -8.5°
Reaches altitude 10° 13:52:09 10° 267° (W) 2,440 4.0 -8.5°
Maximum altitude 13:55:44 17° 307° (NW) 1,985 3.6 -7.8°
Drops below altitude 10° 13:59:21 10° 348° (NNW) 2,452 4.4 -7.1°
Sets 14:02:42 0° 8° (N) 3,392 5.3 -6.4°
